Location: *
(2.7500°S, 66.6833°W)
Time: 04:53:18
(UTC+00:00)

Landsat 7 - Pass Details

Date: 24 May 2024
Orbit: 690 x 692 km, 97.9° (Epoch: 23 June)

Event Time Altitude Azimuth Distance (km) Brightness Sun altitude
Exits shadow 23:37:49 26° 153° (SSE) 1,366 4.9 -18.3°
Maximum altitude 23:40:26 64° 79° (ENE) 767 3.7 -18.9°
Drops below altitude 10° 23:45:03 10° 357° (N) 2,135 6.6 -20.0°
Sets 23:47:18 0° 354° (N) 3,048 7.5 -20.5°
